User: anonymous   Login
Location: Geremba
(10.4250°N, 67.2394°W)
Time: 11:16:24
(UTC+00:00)
Language:

SL-16 R/B - Orbit

View from above orbital plane
View from above orbital plane
View from above satellite
View from above satellite

Ground track
Ground track

The orbit data is extracted from the following two-line orbital elements,

1 27006U 01056F   24203.93348083 -.00000005  00000-0  45393-4 0  9990
2 27006  99.6904 351.3689 0015329  79.3206  32.4037 13.71034592131555
Epoch (UTC): 21 July 2024 22:24:12
Eccentricity: 0.0015329
inclination: 99.6904°
perigee height: 984 km
apogee height: 1007 km
right ascension of ascending node: 351.3689°
argument of perigee: 79.3206°
revolutions per day: 13.71034592
mean anomaly at epoch: 32.4037°
orbit number at epoch: 13155

The dashed part of the orbit path shows where the satellite is in the earth's shadow,  

DLR